Flag for Italy Weather past 2 weeks in Modena, Italy

Now
86 °F

Sunny.


Feels Like: 86 °F
Forecast: 66 / 95 °F
Wind: 12 mph from East

Location: Bologna / Borgo Panigale

Current Time: Jul 1, 2015 at 7:27:22 PM

Latest Report: Jul 1, 2015 at 6:50 PM


Visibility: 10 mi

Pressure: 30.09 "Hg

Humidity: 43%

Dew point: 61 °F

Location of ModenaLocation

Historic Weather in Modena — Graph

°F

Modena temperature yesterday

Maximum temperature yesterday: 86 °F (at 3:50 PM)
Minimum temperature yesterday: 64 °F (at 4:20 AM)
Average temperature yesterday: 76 °F

Past Weeks' High & Low Weather Summary

 TemperatureHumidityPressure
High90 °F (Jul 1, 3:20 PM)100% (Jun 17, 7:50 AM)30.21 "Hg (Jun 17, 7:50 AM)
Low57 °F (Jun 24, 6:20 AM)31% (Jun 23, 2:20 PM)29.71 "Hg (Jun 23, 4:50 PM)
Average72 °F64%30.01 "Hg
* Reported Jun 16 5:20 PM — Jul 1 5:50 PM, Modena, Weather by CustomWeather, © 2015

Note: Actual official high and low records may vary slightly from our data, if they occured in-between our weather recording intervals... More about our weather records

Advertising

Modena weather history for previous 24 hours

 ConditionsComfort  
Time TempWeatherWind HumidityBarometerVisibility
5:50 PM
Wed, Jul 1
88 °FSunny.12 mph40%30.09 "Hg10 mi
5:20 PM90 °FPassing clouds.10 mph38%30.09 "HgN/A
4:50 PM90 °FPassing clouds.8 mph36%30.09 "HgN/A
4:20 PM90 °FPassing clouds.8 mph36%30.09 "HgN/A
3:50 PM90 °FPassing clouds.8 mph38%30.09 "HgN/A
3:20 PM90 °FPassing clouds.5 mph38%30.09 "HgN/A
2:50 PM88 °FSunny.5 mph46%30.09 "Hg10 mi
2:20 PM88 °FPassing clouds.6 mph46%30.12 "HgN/A
1:50 PM86 °FSunny.5 mph46%30.12 "Hg10 mi
1:20 PM86 °FPassing clouds.6 mph46%30.12 "HgN/A
12:50 PM86 °FPassing clouds.5 mph46%30.12 "HgN/A
12:20 PM84 °FSunny.5 mph48%30.12 "Hg10 mi
11:50 AM84 °FSunny.3 mph55%30.15 "Hg10 mi
11:20 AM82 °FSunny.2 mph55%30.15 "Hg10 mi
10:50 AM82 °FSunny.2 mph55%30.15 "Hg10 mi
10:20 AM79 °FSunny.3 mph58%30.15 "Hg10 mi
9:50 AM79 °FSunny.2 mph58%30.15 "Hg10 mi
9:20 AM77 °FSunny.2 mph57%30.15 "Hg10 mi
8:50 AM77 °FSunny.2 mph61%30.15 "Hg10 mi
8:20 AM73 °FPassing clouds.3 mph65%30.15 "HgN/A
7:50 AM72 °FSunny.5 mph69%30.12 "Hg10 mi
7:20 AM70 °FSunny.6 mph73%30.12 "Hg10 mi
6:50 AM68 °FPassing clouds.6 mph78%30.12 "HgN/A
6:20 AM68 °FClear.6 mph78%30.12 "Hg10 mi
5:50 AM66 °FClear.5 mph83%30.12 "Hg10 mi
5:20 AM66 °FClear.8 mph83%30.12 "Hg10 mi
4:50 AM68 °FClear.7 mph78%30.12 "Hg10 mi
4:20 AM68 °FClear.5 mph78%30.12 "Hg10 mi
3:50 AM64 °FClear.2 mph88%30.12 "Hg10 mi
3:20 AM66 °FClear.2 mph83%30.12 "Hg10 mi
2:50 AM70 °FClear.9 mph73%30.12 "Hg10 mi
2:20 AM70 °FClear.7 mph73%30.12 "Hg10 mi
1:50 AM70 °FClear.6 mph73%30.12 "Hg10 mi
1:20 AM70 °FClear.6 mph73%30.12 "Hg10 mi
12:50 AM70 °FPassing clouds.3 mph69%30.12 "HgN/A
12:20 AM68 °FPassing clouds.3 mph73%30.12 "HgN/A
11:50 PM
Tue, Jun 30
70 °FClear.3 mph64%30.12 "Hg10 mi
11:20 PM72 °FClear.6 mph61%30.12 "Hg10 mi
10:50 PM73 °FClear.7 mph57%30.12 "Hg10 mi
10:20 PM75 °FClear.6 mph54%30.12 "Hg10 mi
9:50 PM77 °FSunny.7 mph51%30.09 "Hg10 mi
9:20 PM79 °FSunny.7 mph45%30.09 "Hg10 mi
8:50 PM79 °FSunny.7 mph48%30.09 "Hg10 mi
8:20 PM81 °FSunny.9 mph42%30.09 "Hg10 mi
7:50 PM82 °FPassing clouds.8 mph42%30.09 "HgN/A
Weather by CustomWeather, © 2015

See weather overviewHow to use our weather pages